{"data":{"norad_id":68204,"epoch":"2026-09-20T00:31:44.281056Z","epoch_age_seconds":116692,"freshness":"FRESH","line1":"1 68204U 26052G   26263.02204029  .00003107  00000+0  18289-3 0  9994","line2":"2 68204  97.5250 336.5621 0009626 351.2338   8.8723 15.12339822 28389","mean_motion":15.12339822,"eccentricity":0.0009626,"inclination_deg":97.525,"raan_deg":336.5621,"arg_perigee_deg":351.2338,"mean_anomaly_deg":8.8723,"bstar":0.00018289,"rev_number":2838,"period_min":95.21669528583,"perigee_km":522.41759451621,"apogee_km":535.71534263391,"semimajor_km":6907.2034685751,"source":"CELESTRAK","updated_at":"2026-09-20T09:00:24.069119Z"}}